Wind_Speed
23 22 24 26 27 27 27 29 28 23 21 20 22 21 19 17 15 12 12 10 7 4 1 2 2 2 2 3 5 5 5 5 4 3 4 5 7 5 5 7 9 9 10 8 8 9 8 9 11
24 20 21 25 27 26 28 30 26 24 22 22 25 24 25 18 16 15 13 11 9 6 3 3 4 3 2 4 5 5 4 4 4 3 3 5 5 7 6 5 14 12 11 8 8 9 9 9 10
21 18 17 22 24 26 29 28 26 23 21 22 27 26 24 20 16 16 13 12 11 8 6 5 6 4 2 2 3 5 6 5 5 6 6 5 4 4 3 2 3 7 9 6 7 7 8 9 10
17 13 15 22 22 24 26 24 23 22 22 26 23 25 24 19 17 19 15 11 9 7 7 8 7 5 4 2 3 2 3 5 6 7 7 5 4 2 1 1 3 6 8 5 6 7 7 8 10
13 12 19 21 20 22 22 21 21 24 23 23 22 22 22 20 21 20 19 15 13 11 11 10 8 5 4 3 1 2 1 1 2 4 6 5 4 2 1 0 1 3 2 4 6 8 8 8 10
8 7 17 18 20 21 20 24 24 23 24 23 26 22 20 18 18 19 17 13 10 11 11 9 6 4 2 1 1 1 1 2 3 2 3 5 4 3 1 1 0 4 1 7 7 6 8 9 10
8 7 16 20 21 24 26 25 26 25 27 26 24 23 22 19 20 17 14 12 11 10 10 11 9 6 3 3 2 2 1 2 3 3 4 4 5 4 4 3 2 1 1 4 7 6 7 9 11
8 14 22 22 18 16 23 23 24 24 27 25 24 23 25 25 25 21 16 11 10 9 9 10 12 12 6 2 4 3 3 3 4 5 6 6 6 5 4 6 6 6 4 3 9 9 8 9 10
7 14 14 20 18 15 20 23 21 25 25 22 23 22 21 23 24 23 20 17 13 8 8 8 10 10 7 5 2 2 4 4 6 7 7 7 7 6 6 7 8 8 8 7 6 14 13 12 12
3 4 11 16 17 20 21 22 23 23 24 22 23 21 22 21 22 25 21 20 18 15 11 7 8 9 8 7 5 3 2 7 10 10 10 10 10 9 9 8 7 9 11 11 9 10 14 14 15
7 4 1 9 15 16 18 19 22 20 22 22 22 24 25 25 23 25 24 22 21 18 16 10 5 7 8 9 9 8 6 6 7 12 13 13 13 11 10 9 8 9 9 11 10 10 13 14 17
12 7 2 7 10 15 17 18 16 18 18 21 25 23 24 25 25 26 27 25 25 20 20 16 9 8 9 12 13 12 9 10 8 11 13 13 12 11 11 10 11 10 9 9 9 11 12 14 18
15 9 10 4 6 9 12 15 15 15 15 18 21 21 22 22 23 25 28 28 26 21 17 17 13 12 11 14 16 18 24 14 8 11 14 17 13 13 12 13 14 12 11 10 10 11 11 11 14
15 14 11 8 3 3 11 11 8 9 11 16 18 21 24 24 25 22 25 27 26 23 15 14 13 12 13 14 16 18 21 18 9 11 11 12 12 14 14 15 17 14 12 12 11 11 11 12 12
17 19 16 9 5 4 4 5 1 3 5 15 17 17 24 25 25 24 21 23 23 22 17 15 15 13 15 16 17 17 21 20 12 12 12 12 13 20 16 16 18 17 15 15 14 14 15 14 12
21 24 22 14 15 16 4 2 4 3 2 13 10 14 17 20 26 19 19 21 23 20 17 16 17 16 16 19 19 14 18 20 16 13 8 11 16 19 15 18 16 18 18 17 17 17 15 15 16
27 25 24 26 24 16 18 10 3 1 4 7 9 13 15 19 24 22 22 21 22 21 16 15 17 17 17 19 20 17 16 19 18 13 7 3 11 14 12 13 18 17 17 18 19 18 17 15 19
22 24 24 21 18 18 21 16 7 6 5 3 8 13 17 23 24 24 21 22 25 22 17 14 13 15 14 17 20 20 16 16 17 14 8 2 4 12 12 16 16 17 18 17 17 15 16 14 16
28 23 21 18 19 17 23 22 14 10 5 1 5 8 16 18 21 23 23 25 27 27 22 21 18 13 11 15 17 18 20 16 15 14 11 7 6 11 14 16 16 17 18 18 14 14 18 14 16
34 28 23 18 19 20 19 8 9 12 11 6 6 10 15 13 20 24 28 26 27 25 22 23 23 9 10 16 19 20 18 16 13 12 10 6 10 8 9 13 16 15 15 16 18 17 19 21 15
35 31 23 16 22 24 20 12 13 17 19 11 10 12 14 13 17 24 26 24 27 26 24 21 13 10 10 14 17 22 21 13 14 12 11 7 6 10 10 12 12 14 15 16 20 19 17 13 12
37 32 30 26 24 20 16 17 15 22 21 14 16 16 14 16 15 22 24 24 28 33 28 31 19 5 9 10 16 19 20 15 13 15 13 11 9 8 12 14 16 17 17 14 15 16 14 13 13
30 35 33 27 28 26 23 26 19 21 21 21 21 19 17 19 18 19 22 22 27 25 28 33 8 10 16 17 18 20 20 19 14 14 17 15 15 13 11 14 16 19 17 16 16 16 14 15 15
31 36 32 27 23 30 26 26 21 20 24 20 21 21 15 15 17 21 25 30 23 27 23 27 25 19 16 16 18 22 21 19 15 17 19 19 22 19 16 14 14 19 19 19 14 14 15 16 16
34 36 34 33 29 31 26 32 29 27 23 22 20 15 17 20 18 21 28 32 37 33 44 29 29 16 16 19 22 21 19 20 17 20 20 14 15 20 18 10 8 11 15 19 18 17 17 17 17
35 34 30 32 34 31 32 31 25 25 25 21 18 11 15 13 16 21 26 33 26 35 47 16 21 13 15 20 22 21 18 20 19 22 18 15 13 17 15 12 8 8 10 14 15 16 16 15 15
33 33 33 31 28 30 28 29 34 35 23 16 16 16 16 19 24 28 23 36 35 46 34 32 18 9 13 15 19 23 18 20 21 24 12 8 6 11 11 12 10 9 10 11 12 11 12 13 14
31 28 29 27 28 28 24 20 20 21 21 18 23 24 24 22 25 26 33 37 42 51 54 40 10 7 11 12 16 21 18 16 19 22 19 5 2 5 11 9 9 7 8 12 13 11 11 11 12
31 28 27 25 27 25 22 19 14 10 15 21 26 26 25 24 22 21 26 39 41 46 27 23 6 6 11 13 15 19 18 16 15 17 17 10 3 5 9 6 7 5 6 7 10 11 12 12 11
33 30 26 23 21 20 20 21 16 17 18 17 21 27 23 22 24 25 28 32 42 29 8 12 4 7 12 15 13 16 18 18 15 18 17 10 6 4 2 4 5 5 7 7 8 11 12 12 12
Wind_Direction
59 60 67 71 67 64 61 61 53 46 50 57 58 52 53 59 51 51 45 39 37 32 317 341 26 23 68 98 113 120 141 135 131 110 90 68 57 92 161 161 170 166 162 158 157 147 140 135 138
54 64 64 69 65 62 56 58 53 44 45 51 52 45 39 34 47 50 46 41 41 27 342 8 38 36 62 93 105 114 127 142 143 118 93 90 90 81 82 153 151 146 146 152 152 153 143 139 141
59 54 56 67 66 63 62 58 52 45 38 47 48 45 43 33 37 47 48 46 47 39 21 23 48 52 81 83 104 121 116 108 107 111 108 116 110 88 100 31 108 140 119 127 141 151 150 146 150
64 54 54 62 67 64 63 61 52 38 35 40 42 44 36 28 47 52 51 49 48 42 51 45 42 48 44 49 63 93 131 125 127 124 121 117 121 112 56 296 330 138 132 125 140 149 158 160 155
63 62 59 50 60 62 58 51 46 40 33 38 42 46 37 42 49 53 45 46 52 49 47 43 41 46 42 22 111 124 204 216 149 162 154 150 131 128 57 76 85 159 151 156 152 154 160 168 163
51 73 34 31 49 54 58 44 38 40 32 35 47 48 42 45 47 49 49 47 54 64 53 40 33 31 62 334 235 154 222 209 227 228 204 180 179 190 234 127 70 127 104 183 160 156 167 168 168
74 46 48 50 55 46 39 43 39 37 30 41 53 46 41 40 37 42 57 58 69 66 54 54 48 18 33 198 189 141 222 238 209 220 231 219 200 203 223 245 218 181 58 181 189 168 171 171 170
60 67 64 59 59 57 31 49 46 42 38 36 40 38 37 32 27 29 34 35 46 50 53 52 47 40 49 146 156 175 196 244 226 221 221 217 208 198 223 221 221 217 207 158 201 198 187 185 185
30 75 75 77 74 57 69 53 48 44 37 33 26 21 24 28 26 24 24 20 25 24 45 44 53 53 37 53 99 194 215 234 250 239 223 222 220 200 205 229 223 221 223 219 198 199 202 196 193
69 71 107 76 84 79 59 51 45 40 29 14 19 14 12 20 21 21 20 21 19 8 16 31 46 49 42 22 7 348 232 228 229 237 231 225 218 216 214 214 231 229 221 220 211 200 207 210 207
236 249 68 114 107 94 67 55 57 46 40 30 15 7 8 9 12 14 10 21 20 14 12 14 31 41 35 39 20 350 327 280 247 233 235 227 220 222 225 220 213 231 234 227 219 208 218 223 222
237 244 304 93 120 102 88 73 62 54 33 26 17 6 6 4 6 10 5 9 14 14 18 24 34 49 35 27 17 2 321 296 262 225 226 234 228 227 229 231 233 222 224 224 225 229 225 220 217
238 266 299 110 141 104 100 89 65 44 32 16 13 5 7 3 10 7 4 4 7 15 18 30 30 23 26 17 9 356 349 1 283 259 248 223 211 219 221 224 230 236 226 227 226 233 234 225 219
233 264 282 289 162 162 102 98 64 45 14 10 9 357 357 5 6 5 4 1 4 10 15 23 22 25 24 12 8 359 354 349 322 307 264 235 224 231 219 221 225 219 229 234 232 237 246 242 231
233 259 253 271 226 221 200 138 214 44 7 6 3 356 351 346 346 355 1 0 4 13 16 26 19 21 20 12 5 359 358 358 337 307 251 235 221 223 231 224 220 223 223 229 236 231 244 250 245
232 237 239 260 275 276 253 212 216 191 325 15 20 14 8 20 360 352 359 360 1 13 23 23 18 15 16 15 11 3 2 6 359 14 54 209 212 221 231 226 225 224 222 222 230 239 231 252 262
228 235 243 256 268 291 290 268 233 232 77 41 22 357 347 347 346 351 357 1 359 6 16 12 19 20 15 14 13 12 8 8 9 5 355 235 229 209 207 225 223 230 227 226 232 237 239 248 258
235 239 245 258 275 304 300 287 277 263 144 61 8 317 323 325 333 342 350 353 358 358 348 352 3 19 17 13 14 10 7 7 7 4 347 312 191 195 224 224 227 227 221 218 222 232 241 251 256
233 246 248 263 272 300 291 297 280 283 221 124 2 317 300 315 328 333 332 345 351 352 338 342 345 354 2 2 6 12 7 358 355 359 355 299 263 262 249 240 232 229 226 228 235 257 263 259 260
228 234 246 240 272 278 283 311 267 289 275 281 307 297 300 304 314 321 330 335 345 341 343 335 344 345 26 3 1 360 357 348 345 335 345 331 280 270 236 218 220 229 237 232 244 257 272 270 259
223 235 234 246 254 266 263 261 255 267 275 280 284 291 301 301 311 317 321 329 332 336 338 326 332 346 8 8 353 351 355 350 327 321 320 326 291 264 244 228 229 229 238 251 247 252 260 220 240
222 238 241 241 244 240 255 249 242 259 268 268 267 280 288 288 308 311 316 327 331 332 325 306 268 281 333 21 352 347 344 347 330 308 306 302 301 274 249 244 244 230 246 247 244 246 239 248 248
230 230 239 239 234 245 244 248 226 238 246 258 269 271 277 299 285 300 298 305 306 320 317 308 261 44 8 356 352 345 346 350 324 305 297 290 284 278 247 237 239 233 236 248 251 236 246 257 258
234 224 233 240 247 241 233 243 223 248 262 268 286 284 274 281 268 278 292 308 283 304 316 310 322 34 3 354 356 352 347 346 337 323 305 282 273 262 249 224 226 238 245 248 249 242 251 262 260
230 229 234 241 248 254 241 246 253 268 271 286 287 294 281 293 303 302 300 312 300 314 311 305 308 3 350 350 355 353 342 340 340 338 319 278 274 244 241 244 234 245 244 247 253 251 250 250 250
228 231 238 244 246 255 260 261 262 269 276 276 287 275 271 300 325 324 312 301 282 313 323 277 298 341 347 349 348 349 351 342 343 352 322 281 263 240 233 233 230 235 242 239 234 239 249 252 249
232 236 243 249 256 251 255 261 264 269 271 265 258 272 283 321 318 323 314 307 258 314 312 303 278 323 347 340 342 348 356 352 350 355 341 325 298 236 206 214 217 229 234 246 235 236 244 249 247
237 239 243 248 253 256 256 263 275 260 259 256 267 277 297 313 320 334 337 324 307 313 305 285 258 319 340 349 345 348 1 354 358 2 5 9 38 182 186 205 212 242 246 244 251 244 249 244 237
237 245 238 241 254 263 256 260 268 265 262 261 270 283 294 311 325 330 318 320 321 307 286 206 214 355 346 347 352 349 1 358 357 2 11 7 358 200 221 223 201 235 268 255 254 251 250 242 232
231 237 248 236 248 247 255 257 265 271 262 270 279 284 298 311 320 322 326 317 314 323 206 149 93 9 351 339 345 349 1 0 354 358 357 2 5 340 243 217 225 241 261 256 252 254 253 238 221
Height
5912 5912 5909 5908 5909 5905 5902 5901 5902 5903 5901 5899 5895 5894 5893 5890 5890 5892 5888 5887 5887 5886 5885 5883 5882 5881 5881 5881 5882 5882 5883 5882 5883 5885 5887 5887 5888 5888 5888 5889 5890 5892 5893 5895 5897 5897 5898 5900 5900
5916 5915 5914 5910 5910 5908 5904 5904 5905 5905 5903 5901 5897 5896 5895 5895 5892 5891 5890 5889 5887 5888 5887 5885 5882 5881 5881 5881 5882 5882 5883 5883 5884 5884 5885 5887 5888 5889 5889 5888 5890 5892 5893 5895 5897 5898 5899 5901 5902
5919 5919 5917 5912 5911 5909 5907 5907 5906 5908 5907 5903 5899 5899 5899 5897 5895 5892 5891 5890 5888 5888 5888 5886 5883 5882 5881 5882 5882 5882 5882 5883 5884 5885 5885 5887 5888 5889 5890 5889 5889 5892 5894 5896 5898 5899 5901 5902 5904
5923 5922 5919 5916 5914 5913 5912 5911 5909 5909 5908 5904 5904 5902 5902 5900 5897 5893 5892 5890 5889 5889 5888 5886 5884 5883 5882 5882 5883 5883 5883 5883 5883 5884 5885 5887 5888 5889 5890 5892 5891 5893 5894 5898 5899 5900 5901 5904 5905
5926 5923 5921 5920 5918 5916 5916 5914 5913 5911 5910 5907 5907 5906 5905 5903 5899 5894 5894 5892 5891 5890 5889 5887 5885 5883 5882 5882 5882 5883 5884 5884 5884 5884 5885 5886 5888 5889 5890 5892 5893 5893 5894 5897 5899 5900 5902 5905 5906
5926 5926 5924 5923 5922 5921 5919 5918 5916 5915 5914 5912 5908 5909 5907 5905 5901 5897 5895 5895 5894 5891 5889 5886 5884 5882 5881 5881 5881 5882 5883 5884 5884 5885 5885 5886 5887 5889 5890 5892 5893 5894 5896 5898 5899 5901 5903 5905 5907
5927 5928 5927 5927 5925 5924 5921 5921 5920 5919 5918 5916 5913 5912 5911 5909 5904 5901 5898 5897 5895 5892 5889 5886 5884 5882 5881 5880 5880 5881 5882 5882 5883 5884 5885 5886 5886 5888 5890 5892 5893 5894 5896 5896 5899 5901 5903 5906 5907
5927 5931 5929 5929 5926 5926 5924 5923 5922 5921 5920 5920 5917 5915 5913 5911 5908 5904 5901 5899 5896 5892 5889 5886 5883 5881 5880 5880 5880 5879 5880 5880 5881 5881 5883 5884 5885 5887 5888 5890 5892 5894 5894 5897 5899 5902 5902 5905 5907
5928 5931 5930 5930 5929 5929 5927 5925 5925 5923 5921 5920 5918 5918 5916 5912 5909 5907 5902 5900 5897 5894 5890 5886 5883 5882 5881 5881 5880 5879 5878 5880 5880 5881 5881 5882 5883 5885 5886 5888 5890 5891 5893 5896 5899 5900 5901 5904 5906
5928 5930 5929 5929 5930 5931 5929 5926 5927 5925 5923 5921 5919 5919 5918 5915 5912 5908 5905 5901 5897 5895 5891 5887 5885 5883 5882 5881 5880 5878 5878 5878 5878 5878 5878 5880 5881 5883 5884 5886 5889 5891 5892 5893 5896 5898 5900 5903 5904
5927 5930 5932 5929 5928 5930 5929 5929 5927 5926 5924 5923 5921 5921 5919 5916 5913 5910 5906 5901 5896 5894 5891 5888 5885 5884 5882 5880 5879 5877 5876 5876 5876 5876 5877 5877 5879 5880 5883 5885 5887 5889 5891 5893 5895 5896 5899 5901 5903
5926 5931 5933 5932 5929 5929 5929 5929 5929 5927 5927 5926 5923 5921 5920 5917 5915 5910 5906 5902 5897 5894 5892 5889 5888 5886 5883 5880 5878 5876 5871 5871 5871 5872 5874 5876 5877 5880 5881 5884 5885 5887 5890 5892 5894 5895 5896 5898 5900
5926 5929 5931 5934 5933 5930 5929 5930 5929 5928 5928 5927 5925 5923 5922 5917 5914 5912 5908 5903 5898 5895 5892 5891 5889 5889 5885 5881 5878 5875 5868 5867 5869 5869 5871 5871 5875 5878 5881 5882 5884 5887 5888 5890 5892 5893 5895 5896 5898
5927 5928 5930 5932 5933 5932 5931 5931 5930 5929 5928 5927 5925 5924 5921 5918 5915 5913 5910 5905 5899 5897 5893 5890 5889 5888 5885 5881 5878 5875 5872 5869 5868 5866 5867 5868 5871 5876 5878 5880 5882 5884 5887 5889 5890 5891 5893 5894 5896
5928 5928 5928 5930 5931 5933 5930 5931 5929 5929 5928 5927 5926 5925 5921 5919 5916 5914 5911 5905 5899 5897 5894 5891 5890 5889 5885 5882 5879 5876 5872 5868 5866 5864 5864 5865 5868 5872 5875 5879 5880 5882 5884 5886 5888 5889 5890 5893 5894
5926 5927 5928 5929 5929 5930 5932 5930 5929 5929 5927 5927 5926 5924 5921 5919 5918 5914 5911 5907 5901 5897 5897 5893 5890 5888 5885 5881 5878 5876 5874 5870 5865 5859 5860 5864 5867 5870 5873 5876 5878 5880 5881 5883 5886 5886 5888 5890 5891
5923 5924 5926 5926 5927 5927 5926 5929 5928 5927 5927 5927 5926 5924 5921 5920 5918 5915 5912 5907 5903 5898 5896 5894 5890 5886 5884 5881 5878 5876 5874 5871 5869 5865 5864 5866 5867 5869 5871 5873 5874 5877 5879 5881 5882 5884 5885 5887 5887
5918 5919 5921 5924 5925 5924 5923 5925 5926 5926 5925 5925 5926 5924 5922 5919 5917 5913 5911 5909 5905 5898 5895 5893 5890 5884 5881 5880 5878 5877 5874 5872 5870 5868 5865 5865 5866 5868 5870 5871 5872 5874 5876 5878 5879 5881 5882 5884 5884
5913 5915 5917 5921 5921 5921 5920 5919 5921 5921 5923 5923 5924 5923 5922 5919 5916 5914 5910 5907 5903 5898 5895 5893 5891 5886 5879 5880 5877 5873 5872 5872 5871 5869 5866 5866 5867 5867 5867 5868 5869 5871 5873 5875 5877 5878 5879 5879 5880
5909 5913 5916 5920 5919 5919 5916 5916 5916 5918 5920 5921 5922 5922 5921 5917 5913 5912 5909 5905 5902 5897 5898 5893 5887 5881 5880 5878 5877 5874 5869 5869 5868 5868 5868 5865 5864 5865 5865 5866 5867 5870 5871 5873 5874 5875 5875 5875 5876
5905 5908 5914 5917 5915 5915 5914 5913 5913 5915 5917 5919 5920 5921 5919 5916 5913 5910 5907 5904 5899 5898 5897 5894 5886 5881 5877 5876 5874 5873 5868 5864 5864 5864 5864 5865 5863 5862 5864 5864 5866 5868 5868 5869 5870 5871 5872 5872 5873
5901 5906 5909 5912 5913 5913 5912 5912 5913 5914 5915 5917 5917 5917 5916 5916 5911 5908 5906 5903 5897 5895 5890 5883 5875 5871 5875 5871 5872 5869 5868 5860 5860 5860 5860 5861 5861 5860 5860 5861 5864 5866 5866 5866 5867 5869 5870 5870 5871
5899 5901 5903 5906 5909 5910 5911 5909 5913 5913 5913 5914 5914 5913 5913 5913 5909 5906 5903 5899 5894 5887 5887 5874 5849 5872 5880 5875 5870 5866 5864 5858 5857 5857 5855 5855 5857 5857 5857 5857 5859 5862 5864 5864 5865 5866 5868 5868 5868
5894 5898 5900 5901 5904 5905 5909 5906 5910 5910 5910 5911 5911 5909 5908 5906 5903 5901 5900 5897 5891 5884 5888 5877 5872 5874 5876 5874 5868 5864 5862 5857 5855 5853 5851 5848 5848 5851 5853 5852 5853 5857 5859 5861 5862 5863 5865 5866 5866
5889 5893 5895 5897 5898 5899 5903 5902 5906 5904 5905 5905 5906 5906 5904 5903 5902 5901 5897 5895 5886 5887 5886 5879 5846 5869 5873 5871 5864 5862 5858 5857 5853 5848 5844 5842 5841 5843 5847 5849 5850 5852 5855 5857 5859 5861 5862 5863 5864
5886 5889 5891 5891 5893 5896 5896 5895 5898 5899 5900 5901 5903 5902 5901 5901 5899 5898 5895 5892 5890 5888 5882 5876 5872 5874 5870 5866 5863 5861 5854 5853 5849 5842 5838 5838 5837 5837 5842 5845 5847 5849 5852 5854 5855 5857 5858 5859 5860
5882 5885 5887 5887 5889 5888 5890 5891 5892 5893 5896 5897 5898 5897 5897 5897 5895 5893 5891 5883 5878 5879 5871 5873 5864 5869 5867 5866 5864 5859 5853 5849 5846 5840 5835 5834 5833 5835 5838 5842 5844 5847 5849 5851 5851 5853 5854 5855 5856
5877 5881 5882 5883 5883 5883 5885 5886 5886 5888 5891 5892 5892 5892 5893 5892 5891 5886 5883 5877 5866 5864 5865 5867 5867 5864 5865 5864 5861 5857 5850 5848 5846 5841 5835 5832 5832 5834 5837 5840 5841 5844 5845 5847 5848 5848 5850 5851 5853
5873 5874 5876 5879 5879 5879 5880 5883 5885 5886 5887 5887 5888 5888 5889 5888 5885 5884 5880 5871 5866 5855 5850 5860 5863 5862 5860 5860 5857 5856 5850 5848 5846 5842 5837 5833 5832 5834 5836 5838 5839 5841 5842 5843 5845 5846 5846 5847 5848
5866 5869 5871 5873 5875 5875 5876 5878 5880 5882 5883 5883 5883 5884 5885 5885 5884 5880 5877 5875 5867 5846 5843 5857 5855 5858 5859 5861 5858 5856 5852 5848 5846 5843 5838 5836 5834 5835 5834 5835 5837 5838 5839 5840 5841 5843 5843 5845 5846